Wind_Speed
4 4 4 4 4 4 4 4 4 4 4 4 5 5 5 6 6 6 5 5 5 5 4 4 4 4 4 5 5 5 5 6 6 7 7 8 9 10 10 10 11 10 10
4 4 4 3 3 3 3 3 3 3 3 3 4 5 5 5 6 6 6 6 6 6 5 5 5 5 5 5 5 5 6 7 8 8 8 9 9 10 11 11 12 12 12
4 4 4 4 3 3 3 2 3 3 3 4 5 5 5 5 6 6 6 6 6 6 5 5 6 6 6 6 6 6 7 8 9 9 10 10 10 11 12 12 13 13 13
4 4 4 4 4 3 3 3 4 4 4 4 5 5 5 6 6 6 6 7 7 7 6 6 6 6 6 7 7 8 8 9 9 10 11 11 11 12 13 14 14 14 14
5 5 4 5 5 4 4 4 4 5 5 5 5 6 6 6 7 7 7 7 7 8 8 7 7 8 8 8 9 10 10 10 11 11 11 11 12 13 13 14 15 15 16
6 6 6 5 5 5 5 5 6 6 6 6 6 6 7 7 8 9 8 8 8 8 9 9 9 9 9 10 10 11 11 11 11 11 11 12 13 14 14 14 15 15 16
7 7 6 6 6 6 6 7 7 7 7 7 8 8 8 9 10 11 11 10 10 10 10 10 9 9 10 10 10 11 12 12 12 12 12 13 14 14 15 15 15 15 16
8 7 7 7 7 7 7 7 8 8 8 8 9 10 10 11 12 12 12 12 12 11 11 10 11 11 11 11 11 11 12 12 12 13 13 14 14 15 15 15 16 16 16
8 8 8 8 8 8 8 8 8 9 9 9 10 11 12 13 13 13 13 13 13 13 12 11 11 11 11 12 12 12 13 13 13 14 14 15 15 16 16 16 16 17 17
9 9 9 9 9 9 9 10 10 11 11 11 11 11 12 12 12 12 12 11 12 12 12 12 12 12 12 12 13 14 14 14 14 15 15 16 17 17 17 17 18 18 18
11 10 10 10 10 11 11 11 11 12 12 13 13 13 13 12 12 12 13 12 13 13 14 14 14 14 13 13 14 15 15 15 15 16 16 17 18 18 18 18 19 20 20
11 11 11 11 12 12 12 12 13 13 14 14 14 14 14 14 14 14 14 14 14 15 15 15 15 15 15 15 15 16 16 16 17 17 18 18 19 19 20 20 20 20 20
13 13 13 13 14 14 14 14 14 14 14 14 15 15 15 16 15 15 15 16 15 16 16 16 17 17 17 18 17 17 18 18 19 20 20 20 20 20 21 21 21 21 20
15 14 14 15 16 16 16 16 16 16 16 16 16 16 16 16 16 16 17 17 17 17 18 18 18 18 19 18 19 20 21 21 21 21 21 21 21 22 22 23 23 22 21
16 15 16 17 17 18 18 18 18 18 17 17 18 18 18 18 18 19 19 19 18 19 19 18 19 19 19 20 21 21 22 22 22 22 23 23 23 23 24 24 23 22 22
18 17 17 18 18 19 20 20 19 20 19 19 20 20 20 20 20 20 21 20 20 20 20 20 20 20 20 21 22 22 22 22 22 23 24 25 24 24 24 24 24 24 24
20 19 19 19 20 20 20 21 21 21 21 21 21 21 22 22 22 22 21 21 21 21 21 21 22 22 22 22 23 24 24 24 24 25 25 25 25 25 24 25 26 26 26
22 22 22 22 22 22 22 22 22 22 23 23 23 23 23 23 24 24 23 23 23 23 23 24 24 24 24 24 25 26 26 25 25 25 25 25 25 26 27 26 26 26 26
24 24 25 24 24 24 24 23 23 24 24 24 24 24 25 25 25 25 25 26 26 26 26 26 26 27 27 27 27 28 27 27 27 26 26 26 26 27 28 28 27 27 27
26 26 26 26 26 25 25 25 25 24 24 24 25 25 25 26 26 26 27 27 28 28 28 28 28 28 28 29 29 29 29 29 29 28 28 28 27 27 27 27 27 28 28
28 27 27 27 27 26 26 26 25 24 25 26 26 26 26 27 27 27 28 29 29 29 30 30 30 30 30 30 30 30 31 31 30 29 30 29 28 28 28 28 28 28 29
28 28 28 27 27 28 28 28 27 27 27 27 27 27 28 28 29 29 29 30 30 31 31 31 30 30 30 30 30 31 31 31 32 31 30 29 29 28 29 28 29 29 30
28 29 29 29 28 28 28 28 28 28 28 29 29 29 29 30 30 30 31 31 31 31 31 32 31 30 30 30 31 31 32 32 33 33 32 31 30 30 31 30 30 31 31
29 30 30 29 29 28 28 29 29 30 29 30 30 30 31 31 32 32 32 33 32 33 33 33 33 31 31 31 32 32 33 33 34 34 34 32 31 32 33 32 31 32 32
29 29 29 29 29 29 28 29 30 30 30 30 30 31 31 33 33 33 32 33 33 33 34 34 33 33 32 33 33 34 34 35 35 34 35 34 34 34 34 33 33 33 33
30 30 29 29 29 29 30 30 30 31 30 30 30 31 31 32 32 31 32 32 33 33 33 33 33 32 33 33 34 34 35 34 34 34 34 35 35 34 34 34 34 34 33
Wind_Direction
9 13 17 24 31 35 41 44 41 40 37 29 25 26 24 20 16 14 10 2 354 347 336 329 325 316 309 306 301 294 293 295 300 299 298 298 299 299 298 297 296 294 293
343 349 351 356 5 13 14 14 9 2 357 357 357 358 1 360 0 3 358 351 346 345 344 334 325 314 306 303 304 298 293 296 297 296 296 294 295 299 299 296 294 295 294
323 325 325 328 333 334 344 353 346 336 328 328 329 332 336 338 341 344 341 343 345 343 338 332 325 320 311 302 302 299 296 296 296 295 294 293 296 297 296 295 295 294 295
312 312 312 314 314 318 321 330 335 330 320 320 320 318 319 322 324 327 333 338 340 337 330 324 322 321 316 306 298 295 296 295 298 296 294 295 297 296 295 295 295 293 292
305 307 310 313 313 310 303 309 323 326 323 323 319 320 321 322 325 325 327 329 329 326 320 314 312 310 309 305 300 298 295 295 296 297 297 297 298 297 296 296 296 294 290
299 302 305 306 309 308 305 307 316 319 315 315 315 315 317 316 317 316 315 316 316 316 315 312 308 305 304 303 301 303 300 297 296 298 301 302 301 300 299 299 298 296 292
294 296 295 296 300 305 306 308 313 316 314 312 312 313 312 310 308 308 307 307 307 307 307 307 307 305 305 306 306 305 302 302 300 301 303 306 305 301 299 299 298 297 294
289 287 288 291 294 302 308 306 307 311 313 313 311 310 308 307 309 309 305 302 304 304 304 303 304 305 305 305 304 305 304 305 303 302 303 305 306 304 300 298 298 298 296
284 284 284 286 290 297 303 302 304 306 306 306 306 305 306 306 306 306 306 297 298 300 302 302 301 303 305 305 304 304 304 303 304 305 304 306 307 305 302 299 298 298 296
277 282 283 286 287 291 296 296 298 300 301 301 301 300 302 305 308 307 307 301 296 297 299 298 298 299 300 303 304 305 304 302 302 303 303 305 308 306 304 300 298 298 296
275 277 276 282 284 288 291 292 294 296 298 300 302 303 299 300 301 301 300 300 299 297 295 295 295 297 298 300 303 304 301 300 301 301 302 304 305 305 304 302 299 297 294
272 274 275 278 281 285 287 286 288 292 297 298 300 303 300 297 296 297 296 296 297 296 294 293 293 293 296 297 300 301 299 299 300 301 300 302 302 302 302 302 302 299 296
271 270 270 274 279 282 285 284 286 289 293 296 298 300 300 299 295 293 294 293 295 297 296 296 295 295 295 296 297 298 299 299 299 299 299 299 299 299 301 302 302 300 298
269 270 272 275 278 281 281 281 284 287 289 294 297 299 300 297 294 293 294 293 293 297 299 296 298 298 298 297 295 295 296 296 296 297 297 297 297 297 298 299 300 298 295
271 274 275 276 277 277 277 278 280 286 289 292 294 295 295 295 294 293 294 293 294 295 297 297 298 298 297 298 298 297 296 293 292 294 295 294 295 296 296 296 297 296 295
269 271 274 276 277 277 276 279 281 287 289 290 292 293 294 294 294 294 294 293 292 294 295 295 296 297 297 296 296 297 297 295 294 293 292 292 292 294 293 292 292 294 294
267 270 273 275 277 279 279 279 281 284 287 288 289 291 293 294 294 294 294 294 293 294 294 293 293 294 294 294 296 296 296 295 294 296 294 292 291 292 292 292 292 293 293
266 270 273 275 276 278 279 280 280 282 284 286 289 290 291 292 294 293 293 294 293 292 293 293 293 293 293 293 294 295 295 295 295 297 295 292 291 290 290 290 292 292 292
265 268 273 275 275 276 277 278 279 280 282 284 287 289 289 291 293 292 292 292 292 291 291 291 292 292 291 292 292 292 292 292 293 294 294 292 291 292 291 290 290 291 291
266 269 272 274 275 276 277 278 278 279 282 284 284 288 290 291 292 292 291 290 290 291 290 289 289 290 289 289 290 290 290 290 291 291 291 292 291 291 290 288 288 289 290
266 269 272 275 275 276 277 278 279 279 281 283 283 285 289 291 291 291 291 290 288 288 289 288 288 287 287 287 288 289 289 290 291 290 291 290 292 290 288 286 286 287 289
266 269 272 275 276 276 276 278 280 280 282 284 283 285 288 290 290 291 291 290 289 289 290 290 289 288 287 286 287 287 288 289 289 289 290 289 289 289 287 285 285 286 288
265 267 269 272 273 275 276 278 280 281 282 283 284 286 287 289 291 292 292 292 292 291 290 290 290 287 287 288 288 287 287 288 288 288 288 287 286 287 287 287 286 287 288
263 264 267 269 272 274 276 278 282 284 283 283 284 285 287 289 290 290 292 292 292 291 290 290 289 287 286 288 287 286 286 286 286 287 286 285 285 286 287 286 286 286 287
263 264 266 267 269 273 276 280 282 283 285 285 285 286 288 288 288 288 290 291 291 290 289 288 287 287 286 287 287 285 286 287 286 285 284 284 284 285 285 285 285 284 285
262 263 264 266 269 272 275 279 281 283 285 285 286 288 289 289 289 290 291 292 292 291 289 288 288 287 288 287 287 286 286 286 285 284 285 284 284 285 284 283 283 283 285
Height
5918 5916 5915 5914 5914 5913 5912 5911 5911 5910 5909 5908 5907 5906 5905 5904 5903 5902 5901 5899 5898 5897 5896 5895 5895 5894 5894 5893 5892 5892 5891 5891 5890 5889 5889 5887 5886 5885 5885 5884 5883 5882 5881
5918 5917 5916 5915 5914 5914 5913 5912 5911 5910 5909 5909 5908 5907 5906 5904 5903 5902 5901 5899 5898 5897 5896 5895 5894 5893 5893 5892 5891 5890 5890 5889 5888 5887 5887 5886 5885 5884 5882 5881 5880 5879 5878
5918 5917 5916 5915 5914 5914 5913 5912 5911 5910 5909 5908 5908 5907 5905 5904 5903 5902 5900 5899 5898 5896 5895 5894 5893 5892 5892 5891 5890 5889 5888 5887 5886 5885 5884 5884 5883 5882 5880 5879 5877 5876 5875
5918 5917 5916 5915 5914 5913 5912 5912 5911 5910 5909 5908 5907 5906 5905 5904 5902 5901 5900 5898 5897 5896 5895 5894 5892 5891 5890 5889 5888 5888 5886 5885 5884 5883 5882 5881 5880 5879 5878 5876 5874 5873 5872
5917 5916 5915 5915 5914 5913 5912 5911 5910 5909 5908 5907 5906 5905 5904 5903 5901 5900 5898 5897 5896 5894 5893 5892 5891 5890 5889 5888 5887 5886 5884 5883 5882 5881 5880 5878 5877 5875 5874 5873 5871 5870 5869
5916 5915 5914 5914 5913 5912 5911 5910 5909 5908 5907 5906 5905 5904 5903 5901 5900 5899 5898 5896 5895 5893 5892 5891 5889 5888 5887 5886 5884 5883 5882 5880 5879 5878 5877 5875 5874 5872 5871 5869 5868 5866 5865
5915 5914 5913 5912 5912 5911 5910 5909 5908 5907 5906 5905 5904 5903 5902 5900 5899 5897 5896 5894 5893 5892 5890 5889 5887 5886 5884 5883 5882 5880 5879 5878 5876 5875 5874 5872 5871 5869 5867 5866 5864 5863 5861
5913 5913 5912 5911 5910 5909 5908 5908 5907 5906 5905 5904 5902 5901 5900 5898 5897 5895 5893 5892 5891 5889 5888 5886 5885 5884 5882 5881 5879 5878 5876 5875 5874 5872 5871 5870 5868 5866 5864 5863 5861 5859 5858
5911 5911 5910 5909 5908 5907 5907 5906 5905 5904 5903 5902 5900 5899 5898 5896 5895 5893 5891 5890 5888 5887 5886 5884 5883 5881 5880 5878 5877 5875 5873 5872 5870 5869 5868 5866 5864 5863 5861 5859 5857 5856 5854
5909 5908 5907 5907 5906 5905 5905 5904 5903 5902 5901 5900 5898 5897 5895 5894 5892 5891 5889 5887 5886 5885 5883 5882 5880 5879 5877 5876 5874 5872 5870 5869 5867 5865 5864 5863 5861 5859 5857 5855 5853 5851 5849
5906 5905 5904 5904 5903 5903 5902 5901 5900 5899 5898 5897 5895 5894 5892 5891 5889 5888 5887 5885 5883 5882 5880 5879 5877 5876 5874 5873 5871 5869 5867 5865 5863 5862 5860 5859 5857 5855 5853 5851 5849 5847 5844
5903 5902 5902 5901 5900 5900 5899 5898 5897 5896 5895 5893 5892 5890 5889 5887 5885 5884 5883 5882 5880 5878 5877 5875 5874 5872 5871 5869 5867 5865 5863 5861 5859 5858 5856 5854 5852 5850 5848 5846 5844 5842 5839
5899 5899 5899 5898 5897 5896 5895 5894 5893 5892 5891 5890 5888 5886 5884 5883 5882 5881 5879 5878 5876 5875 5873 5871 5870 5868 5866 5865 5863 5861 5859 5857 5855 5853 5852 5850 5848 5846 5843 5841 5839 5837 5834
5895 5895 5895 5894 5893 5892 5891 5890 5889 5888 5887 5886 5884 5883 5881 5879 5878 5876 5875 5873 5872 5871 5869 5867 5865 5864 5862 5860 5859 5857 5854 5852 5850 5848 5847 5845 5843 5841 5839 5836 5834 5832 5830
5891 5891 5891 5890 5889 5888 5887 5886 5885 5884 5883 5882 5880 5878 5877 5875 5874 5872 5870 5869 5868 5866 5865 5863 5861 5859 5857 5855 5853 5851 5849 5847 5845 5843 5841 5839 5837 5835 5833 5831 5828 5826 5824
5886 5886 5886 5885 5884 5883 5882 5881 5880 5879 5878 5877 5875 5874 5872 5870 5869 5868 5866 5864 5863 5861 5859 5858 5856 5854 5852 5850 5848 5846 5844 5842 5840 5838 5835 5833 5831 5829 5826 5824 5822 5820 5818
5881 5881 5880 5880 5879 5878 5877 5876 5875 5874 5873 5872 5870 5869 5867 5866 5864 5862 5860 5859 5857 5855 5854 5852 5850 5848 5846 5844 5842 5840 5838 5836 5834 5831 5829 5827 5824 5822 5820 5818 5816 5814 5811
5875 5875 5874 5874 5873 5872 5871 5870 5869 5868 5867 5866 5864 5863 5861 5860 5858 5856 5855 5853 5851 5849 5848 5846 5844 5842 5840 5838 5836 5833 5831 5829 5827 5825 5822 5820 5818 5815 5813 5811 5809 5807 5805
5868 5868 5868 5867 5867 5866 5865 5864 5863 5862 5861 5859 5858 5857 5855 5853 5852 5850 5848 5846 5844 5842 5841 5839 5837 5835 5833 5831 5829 5827 5824 5822 5820 5818 5815 5813 5811 5809 5806 5804 5801 5800 5798
5861 5861 5860 5860 5860 5859 5858 5857 5856 5855 5854 5853 5852 5850 5848 5846 5845 5843 5841 5839 5837 5835 5833 5832 5830 5827 5826 5824 5821 5819 5817 5815 5812 5810 5808 5805 5803 5801 5798 5796 5794 5792 5790
5853 5853 5853 5852 5852 5851 5851 5850 5849 5848 5847 5846 5845 5843 5841 5839 5837 5835 5833 5831 5829 5827 5825 5823 5821 5819 5817 5815 5813 5811 5809 5807 5804 5802 5800 5797 5795 5793 5791 5789 5787 5785 5782
5845 5845 5845 5845 5844 5843 5843 5842 5842 5840 5839 5838 5837 5835 5833 5831 5829 5827 5825 5823 5820 5818 5816 5814 5812 5810 5808 5806 5804 5802 5801 5798 5796 5793 5791 5789 5787 5785 5783 5781 5779 5777 5774
5837 5837 5837 5836 5836 5835 5835 5834 5833 5832 5831 5830 5828 5827 5825 5823 5821 5819 5816 5814 5811 5809 5807 5805 5803 5801 5799 5797 5795 5793 5791 5789 5786 5784 5782 5780 5778 5777 5775 5773 5770 5768 5766
5828 5828 5828 5828 5828 5827 5827 5826 5825 5823 5822 5821 5820 5818 5817 5815 5813 5810 5807 5805 5802 5800 5797 5795 5793 5791 5789 5788 5786 5784 5782 5779 5777 5774 5772 5771 5769 5768 5765 5764 5762 5759 5757
5819 5819 5819 5819 5819 5819 5818 5817 5816 5815 5813 5812 5811 5809 5808 5806 5804 5801 5799 5796 5793 5790 5787 5785 5783 5781 5779 5778 5776 5774 5772 5769 5767 5764 5763 5761 5759 5758 5756 5754 5752 5750 5748
5810 5810 5810 5810 5810 5810 5810 5809 5808 5806 5805 5804 5802 5800 5798 5796 5794 5792 5789 5786 5784 5781 5778 5775 5773 5771 5769 5768 5766 5764 5762 5759 5756 5754 5752 5751 5749 5747 5745 5744 5742 5740 5738